Regional Weather Roundup
Issued by NWS

Current Version | Previous Version | Text Only | Print | Product List | Glossary On
Versions: 1 2 3 4 5 6 7 8 9 10 11 12 13 14 15 16 17 18 19 20 21 22 23 24 25 26 27 28 29 30 31 32 33 34 35 36 37 38 39 40 41 42 43 44 45 46 47 48 49 50
000
ASUS44 KOUN 310210
RWROK

WEATHER ROUNDUP FOR OKLAHOMA
NATIONAL WEATHER SERVICE NORMAN OK
900 PM CDT SUN AUG 30 2015

NOTE: "FAIR" INDICATES FEW OR NO CLOUDS BELOW 12,000 FEET WITH NO
      SIGNIFICANT WEATHER AND/OR OBSTRUCTIONS TO VISIBILITY.

OKZ001>007-009>012-014-015-017-310300-
NORTHWEST OKLAHOMA AND THE PANHANDLE

CITY           SKY/WX    TMP DP  RH WIND       PRES   REMARKS
GAGE           CLEAR     76  57  51 SE8       29.95R
GUYMON         CLEAR     76  52  43 S7        29.96S
ENID/WOODRING  PTCLDY    77  68  73 E12       29.92R
$$

OKZ016-021>023-033>039-044-045-310300-
SOUTHWEST OKLAHOMA

CITY           SKY/WX    TMP DP  RH WIND       PRES   REMARKS
LAWTON/REGL    CLEAR     83  55  38 CALM      29.90R
LAWTON/FT SILL CLEAR     81  64  54 E6        29.90R
FREDERICK      CLEAR     80  59  48 E8        29.88R
CLINTON        CLEAR     79  54  41 S5        29.96R
HOBART         CLEAR     81  54  39 S7        29.93R
ALTUS AFB      CLEAR     77  57  50 E7        29.90S
$$

OKZ018>020-024>031-310300-
CENTRAL OKLAHOMA

CITY           SKY/WX    TMP DP  RH WIND       PRES   REMARKS
OKLAHOMA CITY  FAIR      76  64  66 E7        29.93R
OKC/WILEY POST CLEAR     81  62  52 SE6       29.93R
OKC/TINKER AFB CLEAR     76  68  75 E6        29.93R
STILLWATER     CLEAR     77  71  82 E8        29.93R
GUTHRIE        CLEAR     79  64  60 SE6       29.93R
$$

OKZ008-013-054>072-310300-
NORTHEAST OKLAHOMA

CITY           SKY/WX    TMP DP  RH WIND       PRES   REMARKS
TULSA          PTCLDY    79  74  84 SE3       29.91R
TULSA/JONES    PTCLDY    77  68  73 CALM      29.91S
PONCA CITY     CLEAR     77  69  76 SE7       29.93R
MUSKOGEE       CLOUDY    71  69  93 SE7       29.95R
$$

OKZ032-040>043-046>053-073>077-310300-
SOUTH CENTRAL/SOUTHEAST OKLAHOMA

CITY           SKY/WX    TMP DP  RH WIND       PRES   REMARKS
ARDMORE/DWNTWN PTCLDY    79  63  57 CALM      29.90S
MCALESTER      CLOUDY    76  68  76 SE6       29.94R
$$




USA.gov is the U.S. government's official web portal to all federal, state and local government web resources and services.